Location: Sungai Apap
(2.6167°N, 113.3833°E)
Time: 14:57:39
(UTC+00:00)

Hubble Space Telescope - Pass Details

Date: 25 May 2024
Orbit: 511 x 515 km, 28.5° (Epoch: 14 June)

Event Time Altitude Azimuth Distance (km) Brightness Sun altitude
Exits shadow 20:36:09 67° 48° (NE) 548 0.9 -23.8°
Drops below altitude 10° 20:39:56 10° 113° (ESE) 1,715 3.9 -23.0°
Sets 20:42:11 0° 116° (ESE) 2,601 4.8 -22.5°
